#timestamp,LO_Frequency,Hit,StdDev 
1648724415.7,286047001.4,N
1648724435.5,286047001.3,N
1648724455.4,286046999.7,N
1648724475.2,286047001.9,N
1648724495.1,286047002.6,N
1648724496.0,286047002.6,N
1648724515.8,286047001.8,N
1648724535.6,286047001.7,N
1648724555.5,286047002.0,N
1648724575.3,286047002.0,N
1648724595.1,286047001.5,N
1648724615.9,286047005.8,Y
1648724635.7,286046999.7,P
1648724655.6,286046999.7,N
1648724675.4,286047002.5,N
1648724695.2,286047000.9,N
1648724715.1,286047003.5,Y
1648724716.0,286047003.5,P
1648724735.8,286047002.6,N
1648724755.7,286047002.0,N
1648724775.5,286047002.7,N
1648724795.3,286047003.8,Y
1648724815.2,286046998.3,P
1648724835.0,286046998.5,N
1648724835.9,286046998.5,N
1648724855.7,286046996.6,N
1648724875.6,286046999.5,N
1648724895.4,286046998.9,N
1648724915.3,286047001.2,N
1648724935.1,286046998.1,N
1648724955.9,286046999.3,N
1648724975.7,286046999.6,N
1648724995.5,286046996.8,N
1648725015.4,286046996.7,N
1648725035.2,286046998.6,N
1648725055.0,286046996.9,N
1648725055.9,286046996.9,N
1648725075.8,286046998.3,N
1648725095.6,286046999.8,N
1648725115.5,286046999.8,N
1648725135.3,286047000.0,N
1648725155.1,286047002.8,N
1648725175.9,286046999.8,N
1648725195.7,286046998.1,N
1648725215.5,286047001.0,N
1648725235.4,286046998.6,N
1648725255.2,286046998.2,N
1648725275.1,286046998.4,N
1648725276.0,286046998.4,N
1648725295.8,286046999.6,N
1648725315.6,286046997.2,N
1648725335.5,286046997.6,N
1648725355.3,286047001.1,N
1648725375.2,286046998.2,N
1648725395.9,286046999.1,N
1648725415.7,286046996.6,N
1648725435.6,286046998.5,N
1648725455.4,286047001.2,N
1648725475.2,286047001.2,N
1648725495.1,286047000.5,N
1648725496.0,286047000.5,N
1648725515.8,286047001.0,N
1648725535.7,286046998.7,N
1648725555.5,286046996.6,N
1648725575.3,286047001.2,N
1648725595.2,286047001.1,N
1648725615.0,286047000.8,N
1648725615.9,286047000.8,N
1648725635.7,286047000.8,N
1648725655.6,286046996.6,N
1648725675.4,286046996.7,N
1648725695.3,286046997.4,N
1648725715.1,286046999.4,N
1648725716.0,286046999.4,N
1648725735.8,286046999.4,N
1648725755.7,286046999.2,N
1648725775.5,286046997.7,N
1648725795.3,286046997.9,N
1648725815.2,286046995.5,N
1648725835.0,286046997.2,N
1648725835.9,286046997.2,N
1648725855.8,286046997.0,N
1648725875.6,286046999.5,N
1648725895.4,286046996.8,N
1648725915.3,286046998.5,N
1648725935.1,286047000.8,N
1648725955.8,286047001.0,N
1648725975.7,286047000.7,N
1648725995.5,286046998.4,N
1648726015.4,286046996.7,N
1648726035.2,286046999.1,N
1648726055.0,286047000.8,N
1648726055.9,286047000.8,N
1648726075.8,286047000.9,N
1648726095.6,286046998.8,N
1648726115.5,286046999.0,N
1648726135.3,286046999.1,N
1648726155.1,286046999.4,N
1648726175.9,286046999.2,N
1648726195.7,286046997.4,N
1648726215.5,286046997.7,N
1648726235.4,286046997.4,N
1648726255.2,286046997.3,N
1648726275.0,286046996.5,N
1648726276.0,286046996.5,N
1648726295.8,286046999.4,N
1648726315.6,286047000.5,N
1648726335.5,286047001.5,N
1648726355.3,286046999.7,N
1648726375.2,286047000.1,N
1648726395.9,286046999.9,N
1648726415.7,286046999.8,N
1648726435.6,286047000.2,N
1648726455.4,286047004.1,N
1648726475.2,286047003.8,N
1648726495.1,286047001.9,N
1648726496.0,286047001.9,N
1648726515.8,286047001.1,N
1648726535.7,286047001.2,N
1648726555.5,286046999.8,N
1648726575.3,286047000.3,N
1648726595.2,286047000.5,N
1648726615.0,286047000.9,N
1648726615.9,286047000.9,N
1648726635.8,286046998.4,N
1648726655.6,286047000.7,N
1648726675.4,286047000.0,N
1648726695.3,286047000.7,N
1648726715.1,286046998.3,N
1648726735.8,286047000.4,N
1648726755.7,286047001.1,N
1648726775.5,286047002.8,N
1648726795.4,286047000.0,N
1648726815.2,286046998.8,N
1648726835.0,286046998.2,N
1648726835.9,286046998.2,N
1648726855.8,286046999.4,N
1648726875.6,286046996.9,N
1648726895.4,286046996.7,N
1648726915.3,286046997.0,N
1648726935.1,286046999.6,N
1648726955.9,286046999.4,N
1648726975.7,286046996.6,N
1648726995.5,286046997.0,N
1648727015.4,286046996.6,N
1648727035.2,286046999.0,N
1648727055.1,286046998.5,N
1648727056.0,286046998.5,N
1648727075.8,286046999.1,N
1648727095.6,286046998.3,N
1648727115.5,286046999.0,N
1648727135.3,286046997.0,N
1648727155.2,286046996.2,N
1648727175.9,286046995.7,N
1648727195.7,286046994.0,Y
1648727215.6,286046995.0,P
1648727235.4,286046995.2,N
1648727255.3,286046997.6,N
1648727275.1,286046997.6,N
1648727276.0,286046997.6,N
1648727295.8,286046995.6,Y
1648727315.7,286046999.2,P
1648727335.5,286046999.0,N
1648727355.3,286046999.1,N
1648727375.2,286046997.3,N
1648727395.0,286046999.6,N
1648727395.9,286046999.6,N
1648727415.8,286046997.6,N
1648727435.6,286046994.9,Y
1648727455.4,286046997.7,P
1648727475.3,286046997.2,P
1648727495.1,286046996.2,P
1648727515.9,286046996.3,Y
1648727535.7,286046997.6,P
1648727555.5,286046996.9,P
1648727575.4,286046998.3,P
1648727595.2,286046996.5,Y
1648727615.1,286047000.3,P
1648727616.0,286047000.3,N
1648727635.8,286047000.5,N
1648727655.6,286047004.4,Y
1648727675.5,286047002.2,P
1648727695.3,286046999.8,N
1648727715.1,286047002.4,N
1648727735.9,286047001.9,N
1648727755.7,286046999.7,N
1648727775.6,286046999.7,N
1648727795.4,286047000.2,N
1648727815.2,286047000.1,N
1648727835.1,286047000.1,N
1648727836.0,286047000.1,N
1648727855.8,286047001.6,N
1648727875.6,286047002.1,N
1648727895.5,286047000.5,N
1648727915.3,286047001.0,N
1648727935.2,286047000.3,N
1648727955.0,286046999.9,N
1648727955.9,286046999.9,N
1648727975.7,286047000.3,N
1648727995.6,286047002.6,N
